Regional Weather Roundup
Issued by NWS

Home | Current Version | Previous Version | Text Only | Print | Product List | Glossary Off
Versions: 1 2 3 4 5 6 7 8 9 10 11 12 13 14 15 16 17 18 19 20 21 22 23 24 25 26 27 28

000
ASUS45 KCYS 242210
RWRWY

WYOMING REGIONAL WEATHER ROUNDUP
NATIONAL WEATHER SERVICE CHEYENNE WY
400 PM MDT FRI OCT 24 2014

NOTE:  "FAIR" INDICATES FEW OR NO CLOUDS BELOW 12,000 FEET
WITH NO SIGNIFICANT WEATHER AND/OR OBSTRUCTIONS TO VISIBILITY.

WYZ001-242300-
YELLOWSTONE NATIONAL PARK

CITY           SKY/WX    TMP DP  RH WIND       PRES   REMARKS
LK YELLOWSTONE   N/A     52  26  36 VRB6G22   30.23
W YELLOWSTONE  NOT AVBL

$$
WYZ002>013-054>058-071-098>099-242300-
NORTHERN WYOMING

CITY           SKY/WX    TMP DP  RH WIND       PRES   REMARKS
JACKSON        SUNNY     66  23  19 SW17G31   30.17R
CODY           PTSUNNY   64  36  34 NE14      30.03
GREYBULL       MOSUNNY   76  27  16 SE6       29.97S
WORLAND        SUNNY     76  28  17 SW3       29.98S
SHERIDAN       MOSUNNY   65  34  31 NW13      30.04R
BUFFALO        SUNNY     66  29  24 E8        30.07S
GILLETTE       SUNNY     66  35  31 NE14      30.05R
HULETT         FAIR      63  32  31 N8        30.08R
NEWCASTLE      FAIR      72  27  18 S6        30.04R

$$
WYZ014>020-022>026-101>103-242300-
CENTRAL WYOMING

CITY           SKY/WX    TMP DP  RH WIND       PRES   REMARKS
BIG PINEY      SUNNY     67  19  16 W15       30.23S
PINEDALE       CLEAR     64  18  16 W13G26    30.22
DUBOIS         FAIR      63  18  17 NW22G31   30.16R
LANDER         SUNNY     75  21  13 NW13      30.07R
RIVERTON       SUNNY     72  24  16 VRB3      30.07S
CASPER         SUNNY     75  20  12 SW24G36   30.08R
DOUGLAS        SUNNY     78  21  12 W24G31    30.07S

$$
WYZ021-027>030-104>119-242300-
SOUTHERN WYOMING

CITY           SKY/WX    TMP DP  RH WIND       PRES   REMARKS
EVANSTON       SUNNY     70  23  17 W20       30.25S
KEMMERER       CLEAR     64  18  16 W17G25    30.26S
FORT BRIDGER   FAIR      71  23  16 W21G26    30.27S
ROCK SPRINGS   SUNNY     68  23  18 SW16      30.23S
RAWLINS        SUNNY     69  24  18 SW24G32   30.24R
SARATOGA       FAIR      68  23  18 SW22G28   30.27R
LARAMIE        SUNNY     70  22  16 SW20G26   30.24R
CHEYENNE       SUNNY     75  18  11 W22G33    30.17S
TORRINGTON     SUNNY     81  25  12 W17G24    30.03R
PINE BLUFFS    FAIR      79  25  13 NW9       30.12S

$$



USA.gov is the U.S. government's official web portal to all federal, state and local government web resources and services.